User: anonymous   Login
Location: Unspecified
(0.0000°N, 0.0000°E)
Time: 17:30:33
(UTC+01:00)
Language:

Atlas Centaur 2 - Orbit

View from above orbital plane
View from above orbital plane
View from above satellite
View from above satellite

Ground track
Ground track

The orbit data is extracted from the following two-line orbital elements,

1 00694U 63047A   14352.87596711  .00002018  00000-0  25953-3 0  6656
2 00694 030.3548 133.7992 0595532 052.7901 107.9219 14.00196883554789
Epoch (UTC): 18 December 2014 21:01:23
Eccentricity: 0.0595532
inclination: 30.3548°
perigee height: 460 km
apogee height: 1326 km
right ascension of ascending node: 133.7992°
argument of perigee: 52.7901°
revolutions per day: 14.00196883
mean anomaly at epoch: 107.9219°
orbit number at epoch: 55478

The dashed part of the orbit path shows where the satellite is in the earth's shadow,  

DLR